Regional Weather Roundup
Issued by NWS

Home | Current Version | Previous Version | Graphics & Text | Print | Product List | Glossary On
Versions: 1 2 3 4 5 6 7 8 9 10 11 12 13 14 15 16 17 18 19 20 21 22 23 24 25 26 27 28 29 30 31 32 33 34 35 36 37 38 39 40 41 42 43 44 45 46 47 48 49 50
742
ASUS43 KDMX 291006
RWRIA

WEATHER ROUNDUP FOR IOWA
NATIONAL WEATHER SERVICE DES MOINES IA
500 AM CDT WED MAR 29 2017

NOTE: "FAIR" INDICATES FEW OR NO CLOUDS BELOW 12,000 FEET WITH NO
SIGNIFICANT WEATHER AND/OR OBSTRUCTIONS TO VISIBILITY.

* - THESE STATIONS ARE NOT NWS STATIONS...THUS NOT UNDER NWS
QUALITY CONTROL.  THEY ALSO DO NOT REPORT WEATHER SUCH
AS PRECIPITATION OR FOG.

IAZ001>003-012>014-020>022-031>034-043>046-291100-
   NORTHWEST IOWA

CITY           SKY/WX    TMP DP  RH WIND       PRES   REMARKS
CARROLL *      CLOUDY    45  45 100 E9        30.11R
CHEROKEE *     CLOUDY    44  43  98 N5        30.12S
DENISON *      LGT RAIN  45  43  93 NE9       30.10S
LE MARS *      CLOUDY    45  43  93 NE5       30.13S
ORANGE CITY *  CLOUDY    45  41  87 E5        30.12S
SHELDON *      CLOUDY    41  39  93 NE7       30.12S
SIOUX CITY     CLOUDY    46  43  89 NE9       30.10F
SPENCER        CLOUDY    42  40  92 N6        30.14R
STORM LAKE *   CLOUDY    43  41  93 E8        30.11S
$$

IAZ055>058-069>071-079>083-090>094-291100-
   SOUTHWEST IOWA

CITY           SKY/WX    TMP DP  RH WIND       PRES   REMARKS
ATLANTIC *     LGT RAIN  46  45  93 NE6       30.07S
AUDUBON *      RAIN      45  41  87 NE7       30.09R
CLARINDA *     CLOUDY    48  48 100 NE9       30.05F FOG
COUNCIL BLFS * RAIN      45  45 100 NE14      30.04F
CRESTON *      CLOUDY    46  46 100 E8        30.06S FOG
HARLAN  *      LGT RAIN  45  45 100 NE8       30.11S
LAMONI         CLOUDY    47  44  90 E8        30.05R
RED OAK *      LGT RAIN  46  46 100 NE12      30.04F
SHENANDOAH *   LGT RAIN  46  46 100 NE13      30.02F
$$

IAZ047>049-059>061-072>074-084-291100-
   CENTRAL IOWA

CITY           SKY/WX    TMP DP  RH WIND       PRES   REMARKS
AMES           CLOUDY    44  41  89 E12       30.10F
ANKENY *       CLOUDY    45  41  87 E9        30.12S
BOONE *        CLOUDY    43  43 100 E13       30.10F
CHARITON *     CLOUDY    45  43  93 NE6G15    30.08R
DES MOINES     CLOUDY    45  40  82 NE12      30.10S
GRINNELL*      CLOUDY    42  39  90 NE12      30.10F
MARSHALLTOWN   CLOUDY    41  40  96 E9        30.12F
NEWTON *       CLOUDY    43  41  93 E14       30.08F
PELLA *        CLOUDY    42  40  92 E8G18     30.09F
PERRY *        CLOUDY    45  42  90 NE8       30.10S
$$

IAZ004>006-015-016-023>025-035-036-291100-
   NORTH CENTRAL IOWA

CITY           SKY/WX    TMP DP  RH WIND       PRES   REMARKS
ALGONA *       CLOUDY    43  43 100 NE6       30.14R
CLARION *      CLOUDY    43  43 100 E7        30.14R
ESTHERVILLE    CLOUDY    38  38 100 N6        30.14S WCI  33
FORT DODGE *   CLOUDY    43  37  81 E6        30.14R
MASON CITY     MOCLDY    40  37  89 NE7       30.16F
FOREST CITY *    N/A     41  36  81 CALM      30.15S
WEBSTER CITY * CLOUDY    43  41  93 E7        30.11F
IOWA FALLS *   CLOUDY    43  40  90 E6        30.15S
$$

IAZ007>011-017>019-026>030-037>042-050>054-066-291100-
   NORTHEAST IOWA

CITY           SKY/WX    TMP DP  RH WIND       PRES   REMARKS
CEDAR RAPIDS   CLOUDY    39  39 100 E15       30.16R WCI  31
CHARLES CITY * CLOUDY    43  39  87 E12       30.16F
CLINTON *      CLOUDY    42  39  89 E12       30.18S
DECORAH *      PTCLDY    41  37  87 E8        30.18S
DUBUQUE        CLOUDY    38  36  92 NE8       30.19R WCI  32
MONTICELLO *   CLOUDY    39  37  93 E10       30.18R WCI  32
OELWEIN *      CLOUDY    39  39 100 E12       30.17S WCI  32
WATERLOO       CLOUDY    40  38  93 E6        30.16R
$$

IAZ064-065-067-068-078-291100-
   EAST CENTRAL IOWA

CITY           SKY/WX    TMP DP  RH WIND       PRES   REMARKS
DAVENPORT      CLOUDY    41  39  93 SE10      30.19R
IOWA CITY      CLOUDY    43  39  86 E12       30.17R
MUSCATINE *    CLOUDY    43  39  87 E8G17     30.17R
QUAD CITIES    CLOUDY    43  39  86 E9        30.17R
$$

IAZ062-063-075>077-085>089-095>099-291100-
   SOUTHEAST IOWA

CITY           SKY/WX    TMP DP  RH WIND       PRES   REMARKS
BURLINGTON     CLOUDY    42  40  92 E12       30.11S
FAIRFIELD *    CLOUDY    41  39  93 E14       30.08F
FORT MADISON * CLOUDY    43  39  87 E10       30.11F
KEOKUK *       CLOUDY    43  41  93 E15G23    30.06F
OSKALOOSA *      N/A     41  39  95 E13       30.09F
CENTERVILLE *  CLOUDY    45  43  93 E6        30.08R
OTTUMWA        CLOUDY    42  41  96 E16       30.07F
WASHINGTON *   CLOUDY    43  41  93 E16       30.12F FOG
$$

ABBREVIATIONS USED IN REMARKS
   TC - TEMPERATURES IN CELSIUS
  WCI - WIND CHILL INDEX
   HX - HEAT INDEX
  VSB - VISIBILITY
$$





USA.gov is the U.S. government's official web portal to all federal, state and local government web resources and services.